| time (UTC) | temp F | wind direction | speed MPH | gust MPH | rain 1hr in | rain 24hr in | rain mn in | humidity % | barometer mb |
| 20260505083312 | 53 | 314 | 0.0 | 4.0 | 0.00 | 0.02 | 0.02 | 96 | 1012.5 |
| 20260505082808 | 53 | 297 | 2.0 | 4.0 | 0.00 | 0.02 | 0.02 | 97 | 1012.3 |
| 20260505082537 | 53 | 277 | 3.0 | 4.0 | 0.00 | 0.02 | 0.02 | 96 | 1012.5 |
| 20260505081809 | 53 | 236 | 1.0 | 8.0 | 0.00 | 0.02 | 0.02 | 96 | 1012.4 |
| 20260505081310 | 53 | 322 | 2.0 | 8.0 | 0.00 | 0.02 | 0.02 | 96 | 1012.3 |
| 20260505080812 | 53 | 283 | 2.0 | 6.0 | 0.00 | 0.02 | 0.02 | 96 | 1012.6 |
| 20260505080314 | 52 | 324 | 3.0 | 7.0 | 0.00 | 0.02 | 0.02 | 96 | 1012.4 |
| 20260505075809 | 52 | 325 | 5.0 | 7.0 | 0.00 | 0.02 | 0.02 | 97 | 1012.3 |
| 20260505075310 | 53 | 327 | 3.0 | 5.0 | 0.00 | 0.02 | 0.02 | 97 | 1012.6 |
| 20260505075032 | 53 | 322 | 2.0 | 5.0 | 0.00 | 0.02 | 0.02 | 97 | 1012.5 |
| 20260505074532 | 53 | 297 | 2.0 | 6.0 | 0.00 | 0.02 | 0.02 | 97 | 1012.5 |
| 20260505073809 | 52 | 292 | 2.0 | 6.0 | 0.00 | 0.02 | 0.02 | 98 | 1012.5 |
| 20260505073026 | 53 | 60 | 0.0 | 4.0 | 0.00 | 0.02 | 0.02 | 98 | 1012.8 |
| 20260505072538 | 52 | 170 | 3.0 | 4.0 | 0.00 | 0.02 | 0.02 | 98 | 1012.9 |
| 20260505071310 | 52 | 124 | 0.0 | 4.0 | 0.00 | 0.02 | 0.02 | 97 | 1012.8 |
| 20260505070809 | 52 | 217 | 2.0 | 4.0 | 0.00 | 0.02 | 0.02 | 97 | 1012.7 |
| 20260505070314 | 53 | 215 | 0.0 | 4.0 | 0.00 | 0.02 | 0.02 | 97 | 1012.8 |
| 20260505070031 | 53 | 245 | 3.0 | 5.0 | 0.00 | 0.02 | 0.02 | 97 | 1012.5 |
| 20260505065314 | 53 | 156 | 2.0 | 8.0 | 0.00 | 0.02 | 0.02 | 97 | 1012.0 |
| 20260505064311 | 53 | 81 | 0.0 | 5.0 | 0.00 | 0.02 | 0.02 | 97 | 1012.3 |
| 20260505063809 | 53 | 50 | 1.0 | 4.0 | 0.00 | 0.02 | 0.02 | 97 | 1012.3 |
| 20260505063534 | 53 | 219 | 2.0 | 4.0 | 0.00 | 0.02 | 0.02 | 97 | 1012.3 |
| 20260505062809 | 53 | 240 | 3.0 | 4.0 | 0.00 | 0.02 | 0.02 | 96 | 1012.4 |
| 20260505061809 | 53 | 353 | 2.0 | 6.0 | 0.00 | 0.02 | 0.02 | 96 | 1012.5 |
| 20260505061311 | 53 | 41 | 1.0 | 5.0 | 0.00 | 0.02 | 0.02 | 96 | 1012.4 |
| 20260505060809 | 53 | 161 | 1.0 | 6.0 | 0.00 | 0.02 | 0.02 | 96 | 1012.3 |
| 20260505060310 | 53 | 261 | 3.0 | 6.0 | 0.00 | 0.02 | 0.02 | 96 | 1012.1 |
| 20260505055809 | 53 | 237 | 1.0 | 4.0 | 0.00 | 0.02 | 0.02 | 96 | 1012.0 |
| 20260505055311 | 53 | 277 | 3.0 | 4.0 | 0.00 | 0.02 | 0.02 | 95 | 1012.1 |
| 20260505054033 | 53 | 221 | 0.0 | 4.0 | 0.00 | 0.02 | 0.02 | 95 | 1012.2 |
| 20260505053532 | 53 | 200 | 2.0 | 3.0 | 0.00 | 0.02 | 0.02 | 95 | 1011.8 |
| 20260505052809 | 53 | 167 | 2.0 | 4.0 | 0.01 | 0.02 | 0.02 | 94 | 1012.0 |
| 20260505052310 | 53 | 79 | 0.0 | 4.0 | 0.01 | 0.02 | 0.02 | 94 | 1011.9 |
| 20260505052031 | 53 | 257 | 2.0 | 4.0 | 0.01 | 0.02 | 0.02 | 95 | 1011.8 |
| 20260505051531 | 53 | 300 | 2.0 | 5.0 | 0.02 | 0.02 | 0.02 | 95 | 1011.9 |
| 20260505050809 | 53 | 71 | 1.0 | 5.0 | 0.02 | 0.02 | 0.02 | 95 | 1011.8 |
| 20260505041310 | 55 | 290 | 2.0 | 4.0 | 0.01 | 0.01 | 0.01 | 87 | 1011.8 |
| 20260505035809 | 55 | 253 | 1.0 | 4.0 | 0.00 | 0.00 | 0.00 | 82 | 1011.6 |
| 20260505034809 | 57 | 287 | 2.0 | 3.0 | 0.00 | 0.00 | 0.00 | 77 | 1011.5 |
| 20260505034529 | 57 | 243 | 2.0 | 4.0 | 0.00 | 0.00 | 0.00 | 74 | 1011.5 |
| 20260505033808 | 56 | 228 | 2.0 | 4.0 | 0.00 | 0.00 | 0.00 | 72 | 1011.5 |
| 20260505033313 | 56 | 226 | 2.0 | 3.0 | 0.00 | 0.00 | 0.00 | 75 | 1011.5 |
| 20260505032029 | 56 | 354 | 0.0 | 2.0 | 0.00 | 0.00 | 0.00 | 80 | 1011.7 |
| 20260505031524 | 56 | 219 | 1.0 | 3.0 | 0.00 | 0.00 | 0.00 | 82 | 1011.5 |
| 20260505031024 | 56 | 228 | 0.0 | 3.0 | 0.00 | 0.00 | 0.00 | 80 | 1011.5 |
| 20260505030531 | 56 | 320 | 2.0 | 3.0 | 0.00 | 0.00 | 0.00 | 80 | 1011.6 |
| 20260505030020 | 57 | 124 | 0.0 | 3.0 | 0.00 | 0.00 | 0.00 | 79 | 1011.4 |
| 20260505024300 | 57 | 147 | 0.0 | 4.0 | 0.00 | 0.00 | 0.00 | 76 | 1011.9 |
| 20260505023300 | 57 | 278 | 2.0 | 3.0 | 0.00 | 0.00 | 0.00 | 78 | 1011.9 |
| 20260505023021 | 57 | 351 | 0.0 | 3.0 | 0.00 | 0.00 | 0.00 | 79 | 1012.3 |
| 20260505022304 | 57 | 301 | 1.0 | 2.0 | 0.00 | 0.00 | 0.00 | 82 | 1012.4 |
| 20260505022027 | 58 | 262 | 1.0 | 2.0 | 0.00 | 0.00 | 0.00 | 81 | 1012.4 |
| 20260505021525 | 58 | 268 | 1.0 | 2.0 | 0.00 | 0.00 | 0.00 | 79 | 1012.3 |
| 20260505021019 | 58 | 283 | 1.0 | 2.0 | 0.00 | 0.00 | 0.00 | 79 | 1012.5 |
| 20260505020306 | 58 | 256 | 1.0 | 3.0 | 0.00 | 0.00 | 0.00 | 74 | 1012.5 |
| 20260505015759 | 58 | 314 | 0.0 | 3.0 | 0.00 | 0.00 | 0.00 | 73 | 1012.6 |
| 20260505015308 | 58 | 194 | 0.0 | 3.0 | 0.00 | 0.00 | 0.00 | 73 | 1012.4 |
| 20260505014758 | 58 | 345 | 0.0 | 3.0 | 0.00 | 0.00 | 0.00 | 73 | 1012.5 |
| 20260505014301 | 58 | 317 | 1.0 | 4.0 | 0.00 | 0.00 | 0.00 | 73 | 1012.3 |
| 20260505013758 | 58 | 320 | 2.0 | 4.0 | 0.00 | 0.00 | 0.00 | 73 | 1012.5 |
| 20260505013302 | 58 | 286 | 1.0 | 4.0 | 0.00 | 0.00 | 0.00 | 72 | 1012.3 |
| 20260505012758 | 58 | 253 | 1.0 | 3.0 | 0.00 | 0.00 | 0.00 | 72 | 1012.3 |
| 20260505012304 | 58 | 302 | 0.0 | 3.0 | 0.00 | 0.00 | 0.00 | 72 | 1012.7 |
| 20260505012017 | 58 | 241 | 2.0 | 3.0 | 0.00 | 0.00 | 0.00 | 71 | 1012.8 |
| 20260505011019 | 58 | 205 | 2.0 | 4.0 | 0.00 | 0.00 | 0.00 | 72 | 1013.0 |
| 20260505010307 | 58 | 236 | 2.0 | 5.0 | 0.00 | 0.00 | 0.00 | 70 | 1013.1 |
| 20260505005759 | 58 | 196 | 2.0 | 5.0 | 0.00 | 0.00 | 0.00 | 70 | 1013.1 |
| 20260505005308 | 58 | 263 | 2.0 | 4.0 | 0.00 | 0.00 | 0.00 | 71 | 1013.3 |
| 20260505004759 | 58 | 192 | 2.0 | 4.0 | 0.00 | 0.00 | 0.00 | 70 | 1013.2 |
| 20260505004528 | 58 | 224 | 2.0 | 4.0 | 0.00 | 0.00 | 0.00 | 69 | 1013.2 |
| 20260505003758 | 58 | 315 | 2.0 | 3.0 | 0.00 | 0.00 | 0.00 | 71 | 1013.4 |
| 20260505003521 | 58 | 203 | 0.0 | 3.0 | 0.00 | 0.00 | 0.00 | 70 | 1013.9 |
| 20260505002759 | 58 | 305 | 2.0 | 3.0 | 0.00 | 0.00 | 0.00 | 69 | 1013.6 |
| 20260505002535 | 58 | 257 | 2.0 | 3.0 | 0.00 | 0.00 | 0.00 | 69 | 1013.8 |
| 20260505001758 | 58 | 284 | 2.0 | 3.0 | 0.00 | 0.00 | 0.00 | 70 | 1013.8 |
| 20260505001305 | 58 | 273 | 2.0 | 2.0 | 0.00 | 0.00 | 0.00 | 70 | 1013.9 |
| 20260505001019 | 58 | 278 | 1.0 | 2.0 | 0.00 | 0.00 | 0.00 | 70 | 1013.9 |
| 20260505000304 | 59 | 278 | 2.0 | 2.0 | 0.00 | 0.00 | 0.00 | 67 | 1014.0 |
| 20260504235758 | 59 | 252 | 0.0 | 2.0 | 0.00 | 0.00 | 0.00 | 68 | 1014.2 |
| 20260504235305 | 59 | 233 | 2.0 | 3.0 | 0.00 | 0.00 | 0.00 | 68 | 1014.1 |
| 20260504235020 | 59 | 191 | 0.0 | 4.0 | 0.00 | 0.00 | 0.00 | 67 | 1013.9 |
| 20260504234526 | 59 | 160 | 0.0 | 6.0 | 0.00 | 0.00 | 0.00 | 67 | 1014.1 |
| 20260504233524 | 59 | 260 | 2.0 | 5.0 | 0.00 | 0.00 | 0.00 | 67 | 1014.3 |
| 20260504232802 | 59 | 223 | 4.0 | 5.0 | 0.00 | 0.00 | 0.00 | 66 | 1014.3 |
| 20260504232017 | 59 | 276 | 3.0 | 4.0 | 0.00 | 0.00 | 0.00 | 65 | 1014.3 |
| 20260504231300 | 59 | 317 | 2.0 | 4.0 | 0.00 | 0.00 | 0.00 | 67 | 1014.2 |
| 20260504230759 | 59 | 272 | 1.0 | 4.0 | 0.00 | 0.00 | 0.00 | 66 | 1014.3 |
| 20260504230518 | 59 | 258 | 2.0 | 6.0 | 0.00 | 0.00 | 0.00 | 66 | 1014.4 |
| 20260504230017 | 59 | 233 | 4.0 | 6.0 | 0.00 | 0.00 | 0.00 | 66 | 1014.5 |
| 20260504225301 | 59 | 322 | 2.0 | 4.0 | 0.00 | 0.00 | 0.00 | 66 | 1014.5 |
| 20260504224759 | 59 | 279 | 2.0 | 4.0 | 0.00 | 0.00 | 0.00 | 65 | 1014.7 |
| 20260504223759 | 59 | 327 | 0.0 | 4.0 | 0.00 | 0.00 | 0.00 | 66 | 1014.6 |
| 20260504223300 | 59 | 228 | 3.0 | 4.0 | 0.00 | 0.00 | 0.00 | 66 | 1014.6 |
| 20260504222527 | 59 | 325 | 2.0 | 5.0 | 0.00 | 0.00 | 0.00 | 67 | 1014.8 |
| 20260504221759 | 59 | 269 | 2.0 | 5.0 | 0.00 | 0.00 | 0.00 | 65 | 1014.8 |
| 20260504221529 | 59 | 261 | 2.0 | 5.0 | 0.00 | 0.00 | 0.00 | 65 | 1014.8 |
| 20260504221030 | 59 | 328 | 2.0 | 5.0 | 0.00 | 0.00 | 0.00 | 65 | 1015.0 |
| 20260504220534 | 59 | 253 | 4.0 | 5.0 | 0.00 | 0.00 | 0.00 | 65 | 1015.2 |
| 20260504215759 | 59 | 328 | 2.0 | 5.0 | 0.00 | 0.00 | 0.00 | 66 | 1015.1 |
| 20260504215522 | 59 | 317 | 1.0 | 5.0 | 0.00 | 0.00 | 0.00 | 65 | 1015.2 |
| 20260504214802 | 60 | 323 | 1.0 | 4.0 | 0.00 | 0.00 | 0.00 | 65 | 1015.0 |
| 20260504214519 | 60 | 289 | 3.0 | 5.0 | 0.00 | 0.00 | 0.00 | 64 | 1015.2 |
| 20260504213759 | 60 | 285 | 2.0 | 6.0 | 0.00 | 0.00 | 0.00 | 64 | 1015.1 |
| 20260504212759 | 60 | 242 | 1.0 | 5.0 | 0.00 | 0.00 | 0.00 | 64 | 1015.4 |
| 20260504212300 | 60 | 316 | 4.0 | 5.0 | 0.00 | 0.00 | 0.00 | 62 | 1015.3 |
| 20260504211759 | 61 | 255 | 2.0 | 5.0 | 0.00 | 0.00 | 0.00 | 61 | 1015.3 |
| 20260504211525 | 61 | 267 | 2.0 | 5.0 | 0.00 | 0.00 | 0.00 | 61 | 1015.5 |
| 20260504210300 | 61 | 241 | 2.0 | 5.0 | 0.00 | 0.00 | 0.00 | 61 | 1015.6 |
| 20260504205533 | 61 | 226 | 0.0 | 4.0 | 0.00 | 0.00 | 0.00 | 61 | 1015.5 |
| 20260504205033 | 61 | 260 | 2.0 | 3.0 | 0.00 | 0.00 | 0.00 | 62 | 1015.6 |
| 20260504204301 | 61 | 224 | 2.0 | 3.0 | 0.00 | 0.00 | 0.00 | 62 | 1015.7 |
| 20260504203759 | 61 | 231 | 0.0 | 3.0 | 0.00 | 0.00 | 0.00 | 63 | 1015.4 |
| 20260504203301 | 61 | 206 | 3.0 | 4.0 | 0.00 | 0.00 | 0.00 | 62 | 1015.5 |
| 20260504203017 | 61 | 202 | 0.0 | 4.0 | 0.00 | 0.00 | 0.00 | 62 | 1015.7 |
| 20260504202301 | 61 | 235 | 2.0 | 4.0 | 0.00 | 0.00 | 0.00 | 61 | 1015.6 |
| 20260504201759 | 61 | 267 | 2.0 | 4.0 | 0.00 | 0.00 | 0.00 | 61 | 1015.4 |
| 20260504201300 | 62 | 153 | 0.0 | 4.0 | 0.00 | 0.00 | 0.00 | 60 | 1015.5 |
| 20260504200300 | 62 | 256 | 2.0 | 3.0 | 0.00 | 0.00 | 0.00 | 60 | 1015.4 |
| 20260504195300 | 62 | 276 | 2.0 | 3.0 | 0.00 | 0.00 | 0.00 | 61 | 1015.3 |
| 20260504194758 | 62 | 285 | 2.0 | 3.0 | 0.00 | 0.00 | 0.00 | 62 | 1015.2 |
| 20260504194301 | 62 | 236 | 3.0 | 3.0 | 0.00 | 0.00 | 0.00 | 64 | 1015.4 |
| 20260504193800 | 62 | 246 | 0.0 | 3.0 | 0.00 | 0.00 | 0.00 | 65 | 1015.3 |
| 20260504193303 | 62 | 324 | 2.0 | 3.0 | 0.00 | 0.00 | 0.00 | 59 | 1015.1 |
| 20260504192802 | 62 | 340 | 2.0 | 2.0 | 0.00 | 0.00 | 0.00 | 56 | 1015.1 |
| 20260504192304 | 63 | 296 | 0.0 | 2.0 | 0.00 | 0.00 | 0.00 | 55 | 1015.0 |
| 20260504191802 | 62 | 251 | 2.0 | 2.0 | 0.00 | 0.00 | 0.00 | 54 | 1015.1 |
| 20260504191300 | 63 | 256 | 0.0 | 2.0 | 0.00 | 0.00 | 0.00 | 54 | 1015.0 |
| 20260504190759 | 63 | 277 | 1.0 | 2.0 | 0.00 | 0.00 | 0.00 | 54 | 1015.0 |
| 20260504185521 | 63 | 315 | 0.0 | 2.0 | 0.00 | 0.00 | 0.00 | 55 | 1014.7 |
| 20260504184758 | 63 | 336 | 0.0 | 2.0 | 0.00 | 0.00 | 0.00 | 57 | 1014.8 |
| 20260504184301 | 63 | 245 | 0.0 | 2.0 | 0.00 | 0.00 | 0.00 | 55 | 1014.8 |
| 20260504184023 | 63 | 316 | 2.0 | 2.0 | 0.00 | 0.00 | 0.00 | 55 | 1014.8 |
| 20260504183301 | 63 | 347 | 0.0 | 2.0 | 0.00 | 0.00 | 0.00 | 55 | 1014.8 |
| 20260504182759 | 64 | 328 | 2.0 | 2.0 | 0.00 | 0.00 | 0.00 | 55 | 1014.8 |
| 20260504182525 | 64 | 269 | 0.0 | 3.0 | 0.00 | 0.00 | 0.00 | 56 | 1014.7 |
| 20260504181759 | 64 | 293 | 1.0 | 3.0 | 0.00 | 0.00 | 0.00 | 58 | 1014.7 |
| 20260504181304 | 64 | 304 | 1.0 | 3.0 | 0.00 | 0.00 | 0.00 | 58 | 1014.5 |
| 20260504180802 | 64 | 316 | 0.0 | 3.0 | 0.00 | 0.00 | 0.00 | 60 | 1014.6 |
| 20260504180300 | 64 | 325 | 0.0 | 2.0 | 0.00 | 0.00 | 0.00 | 60 | 1014.7 |
| 20260504175301 | 64 | 287 | 0.0 | 2.0 | 0.00 | 0.00 | 0.00 | 60 | 1014.7 |
| 20260504174759 | 64 | 328 | 2.0 | 2.0 | 0.00 | 0.00 | 0.00 | 59 | 1014.7 |
| 20260504174520 | 64 | 267 | 1.0 | 3.0 | 0.00 | 0.00 | 0.00 | 59 | 1014.6 |
| 20260504174021 | 64 | 287 | 1.0 | 3.0 | 0.00 | 0.00 | 0.00 | 60 | 1014.6 |
| 20260504173300 | 64 | 267 | 2.0 | 3.0 | 0.00 | 0.00 | 0.00 | 60 | 1014.8 |
| 20260504172759 | 65 | 308 | 1.0 | 2.0 | 0.00 | 0.00 | 0.00 | 58 | 1014.7 |
| 20260504172023 | 65 | 220 | 0.0 | 2.0 | 0.00 | 0.00 | 0.00 | 57 | 1014.7 |
| 20260504171519 | 65 | 255 | 0.0 | 2.0 | 0.00 | 0.00 | 0.00 | 55 | 1015.0 |
| 20260504171029 | 65 | 254 | 2.0 | 3.0 | 0.00 | 0.00 | 0.00 | 54 | 1014.8 |
| 20260504170300 | 66 | 254 | 1.0 | 3.0 | 0.00 | 0.00 | 0.00 | 56 | 1014.8 |
| 20260504150300 | 68 | 187 | 3.0 | 6.0 | 0.00 | 0.00 | 0.00 | 49 | 1015.3 |
| 20260504140758 | 68 | 189 | 2.0 | 4.0 | 0.00 | 0.00 | 0.00 | 49 | 1015.8 |
| 20260504140300 | 68 | 151 | 3.0 | 4.0 | 0.00 | 0.00 | 0.00 | 48 | 1015.9 |
| 20260504130759 | 68 | 160 | 4.0 | 9.0 | 0.00 | 0.00 | 0.00 | 47 | 1016.5 |
| 20260504130301 | 68 | 151 | 6.0 | 9.0 | 0.00 | 0.00 | 0.00 | 47 | 1016.6 |
| 20260504120301 | 69 | 173 | 3.0 | 7.0 | 0.00 | 0.00 | 0.00 | 49 | 1016.7 |
| 20260504100300 | 64 | 171 | 2.0 | 6.0 | 0.00 | 0.00 | 0.00 | 54 | 1017.4 |